Location: Heiligenberg
(48.5381°N, 7.3897°E)
Time: 20:44:52
(UTC+00:00)

Cosmos 2084 Rocket - Pass Details

Date: 26 May 2022
Orbit: 497 x 678 km, 62.8° (Epoch: 02 July)

Event Time Altitude Azimuth Distance (km) Brightness Sun altitude
Exits shadow 01:49:40 21° 238° (WSW) 1,171 4.4 -13.5°
Maximum altitude 01:52:04 63° 315° (NW) 562 3.4 -13.2°
Drops below altitude 10° 01:55:50 10° 37° (NE) 1,708 7.3 -12.9°
Sets 01:58:01 0° 41° (NE) 2,601 8.8 -12.7°
